Flag for Brazil Weather past 2 weeks in São Paulo, São Paulo, Brazil

Now
63 °F

Passing clouds.


Feels Like: 63 °F
Forecast: 56 / 86 °F
Wind: 6 mph from Northeast

Location: Sao Paulo Airport

Current Time: Aug 30, 2015 at 4:53:36 AM

Latest Report: Aug 30, 2015 at 4:00 AM


Visibility: N/A

Pressure: 30.18 "Hg (27.58 "Hg at 765m altitude)

Humidity: 77%

Dew point: 55 °F

Location of São PauloLocation

Historic Weather in São Paulo — Graph

°F

São Paulo temperature yesterday

Maximum temperature yesterday: 79 °F (at 3:00 PM)
Minimum temperature yesterday: 52 °F (at 6:00 AM)
Average temperature yesterday: 63 °F

Past Weeks' High & Low Weather Summary

 TemperatureHumidityPressure
High84 °F (Aug 23, 3:00 PM)94% (Aug 20, 11:04 PM)30.30 "Hg (Aug 20, 11:04 PM)
Low52 °F (Aug 29, 6:00 AM)22% (Aug 23, 3:00 PM)29.95 "Hg (Aug 19, 4:00 PM)
Average65 °F69%30.16 "Hg
* Reported Aug 15 4:00 AM — Aug 30 4:00 AM, São Paulo, Weather by CustomWeather, © 2015

Note: Actual official high and low records may vary slightly from our data, if they occured in-between our weather recording intervals... More about our weather records

Advertising

São Paulo weather history for previous 24 hours

 ConditionsComfort  
Time TempWeatherWind HumidityBarometerVisibility
4:00 AM
Sun, Aug 30
63 °FPassing clouds.6 mph77%30.18 "HgN/A
3:00 AM63 °FPassing clouds.5 mph77%30.18 "HgN/A
2:00 AM63 °FPassing clouds.3 mph77%30.18 "HgN/A
1:00 AM61 °FClear.1 mph83%30.21 "Hg10 mi
12:00 AM63 °FMild.2 mph83%30.21 "Hg4 mi
11:04 PM
Sat, Aug 29
61 °FClear.1 mph88%30.21 "Hg5 mi
11:00 PM61 °FFog.2 mph88%30.24 "Hg2 mi
10:00 PM61 °FFog.3 mph83%30.24 "Hg2 mi
9:00 PM61 °FFog.2 mph88%30.21 "Hg3 mi
8:00 PM63 °FFog.5 mph83%30.21 "Hg3 mi
7:00 PM64 °FClear.8 mph83%30.21 "Hg5 mi
6:00 PM70 °FClear.12 mph69%30.18 "Hg10 mi
5:00 PM79 °FClear.2 mph28%30.15 "Hg10 mi
4:00 PM79 °FSunny.2 mph32%30.15 "Hg10 mi
3:00 PM79 °FSunny.5 mph34%30.18 "Hg10 mi
2:00 PM77 °FSunny.2 mph36%30.21 "Hg10 mi
1:00 PM73 °FSunny.3 mph47%30.24 "Hg10 mi
12:00 PM70 °FSunny.5 mph53%30.27 "Hg10 mi
11:00 AM66 °FSunny.7 mph60%30.27 "Hg10 mi
10:00 AM63 °FPassing clouds.7 mph68%30.30 "HgN/A
9:00 AM59 °FBroken clouds.8 mph77%30.30 "Hg5 mi
8:00 AM55 °FPartly sunny.7 mph88%30.27 "Hg5 mi
7:00 AM55 °FPartly sunny.3 mph88%30.27 "Hg5 mi
6:00 AM52 °FScattered clouds.5 mph88%30.24 "HgN/A
5:00 AM54 °FPassing clouds.3 mph88%30.21 "HgN/A
4:00 AM54 °FPassing clouds.3 mph88%30.21 "HgN/A
Weather by CustomWeather, © 2015

See weather overviewHow to use our weather pages